Regional Weather Roundup
Issued by NWS Cleveland, OH

Home | Current Version | Previous Version | Text Only | Print | Product List | Glossary Off
Versions: 1 2 3 4 5 6 7 8 9 10 11 12 13 14 15 16 17 18 19 20 21 22 23 24 25 26 27 28 29 30 31 32 33 34 35 36 37 38 39 40 41 42 43 44 45 46 47 48 49 50

000
ASUS41 KCLE 311500
RWRCLE
OHIO REGIONAL WEATHER ROUNDUP
NATIONAL WEATHER SERVICE WILMINGTON, OH
1000 AM EST SAT JAN 31 2015

NOTE: "FAIR" INDICATES FEW OR NO CLOUDS BELOW 12,000 FEET WITH NO
SIGNIFICANT WEATHER AND/OR OBSTRUCTIONS TO VISIBILITY.

OHZ001>008-015>018-024>027-034-035-043-044-311600-
   NORTHWEST OHIO

CITY           SKY/WX    TMP DP  RH WIND       PRES   REMARKS
DEFIANCE       SUNNY     24  17  74 SW9       30.31F WCI  14
FINDLAY        SUNNY     22  15  75 S13       30.31F WCI  10
TOLEDO EXPRESS SUNNY     23  16  74 SW8       30.29F WCI  14
TOLEDO EXEC    SUNNY     23  15  71 SW13      30.31F WCI  11
LIMA           SUNNY     24  15  68 SW13      30.32S WCI  12
$$

OHZ009>014-019>023-028>033-038-089-311600-
   NORTHEAST OHIO

CITY           SKY/WX    TMP DP  RH WIND       PRES   REMARKS
CLE-HOPKINS    MOSUNNY   17   9  70 SW8       30.36S WCI   7
CLE-LAKEFRONT  CLOUDY    19  11  70 S9        30.34S WCI   8
CUY CO. ARPT   PTSUNNY   19  12  73 SW9       30.32S WCI   9
LORAIN-ELYRIA  MOSUNNY   15  10  80 SW8       30.33S WCI   4
ASHTABULA      CLOUDY    12   6  77 S8        30.32S WCI   0
AKRON-CANTON   MOSUNNY   13   8  81 SW9       30.32S WCI   1
WOOSTER        NOT AVBL
MANSFIELD      MOSUNNY   19  12  74 SW13      30.31R WCI   6
YOUNGSTOWN     PTSUNNY   12   6  77 SW10      30.31R WCI  -1
$$

OHZ042-051>053-060>062-070>072-077>081-311600-
  SOUTHWEST OHIO

CITY           SKY/WX    TMP DP  RH WIND       PRES   REMARKS
CINC-COVINGTON PTSUNNY   27  17  66 S8        30.37S WCI  19
CINC-LUNKEN    SUNNY     24  19  81 S5        30.42S WCI  18
HAMILTON       SUNNY     26  20  77 CALM      30.40S
DAYTON         NOT AVBL
WRIGHT-PAT AFB NOT AVBL
DAYTON GENERAL MOSUNNY   25  17  72 S7        30.35S WCI  17
WILMINGTON     SUNNY     25  17  72 S10       30.36R WCI  15
$$

OHZ036-037-039>041-045>050-054>059-063>069-073>076-082>088-311600-
  CENTRAL AND SOUTHEAST OHIO

CITY           SKY/WX    TMP DP  RH WIND       PRES   REMARKS
COLUMBUS       MOSUNNY   20  13  74 SW3       30.38S
OSU AIRPORT    SUNNY     21  14  74 SW7       30.35F WCI  12
BOLTON FIELD   SUNNY     21  16  79 S3        30.37S
RICKENBACK AFB NOT AVBL
NEWARK         PTSUNNY   18  13  80 CALM      30.37R
MARION         SUNNY     19  12  74 SW8       30.34S WCI   9
LANCASTER      SUNNY     21  16  81 S6        30.38S WCI  13
ZANESVILLE     SUNNY     13   9  84 S5        30.37S WCI   5
NEW PHILLY     SUNNY     11   6  81 SE6       30.38S WCI   1
$$


USA.gov is the U.S. government's official web portal to all federal, state and local government web resources and services.